[[{"header":{"parameterUnit":"m.s-1","parameterCategory":1,"la1":30.2991,"la2":30.254,"lo1":-89.0895,"lo2":-89.0444,"dy":0.0017,"dx":0.0017,"nx":28,"ny":28,"refTime":"2025-04-27T21:00:00:Z","depth":0,"parameterNumber":2,"parameterNumberName":"U-component_of_WINDS"},"data":[0,0,0,0,0,0,0,0,0,0,0,0,0,0,0,0,0,0,0,0,0,0,0,0,0,0,0,0,0,0,0,0,0,0,0,0,0,0,0,0,0,0,0,0,0,0,0,0,0,0,0,0,0,0,0,0,0,0,-3.2929,-3.2931,0,-3.3089,-3.3091,-3.3093,-3.3103,-3.3101,-3.3099,-3.3098,-3.3261,-3.3266,-3.3272,0,0,0,0,0,0,0,0,0,0,0,0,0,-3.2633,-3.2638,-3.2929,-3.2931,-3.2933,-3.3089,-3.3091,-3.3093,-3.3103,-3.3101,-3.3099,-3.3097,-3.3259,-3.3266,-3.3273,0,0,0,0,0,0,0,0,0,0,0,0,0,-3.2774,-3.264,-3.2929,-3.2957,-3.2961,-3.3088,-3.3091,-3.3094,-3.3104,-3.3101,-3.3098,-3.3096,-3.3256,-3.3265,-3.3274,-3.3384,0,0,-3.3302,-3.3305,0,0,0,0,0,0,0,0,-3.2766,-3.2785,-3.2951,-3.2955,-3.296,-3.3073,-3.3046,-3.3191,-3.3104,-3.305,-3.3098,-3.3095,-3.32,-3.3214,-3.325,-3.3391,-3.3398,-3.3302,-3.3308,-3.3312,-3.3314,0,0,0,0,0,0,0,-3.2756,-3.2778,-3.2992,-3.2953,-3.2959,-3.2962,-3.2979,-3.3074,-3.3138,-3.3054,-3.3055,-3.3074,-3.3202,-3.3241,-3.3254,-3.3401,-3.3302,-3.331,-3.3316,-3.3319,-3.3641,-3.3644,0,0,0,0,0,0,-3.2741,-3.277,-3.2987,-3.2997,-3.2854,-3.2969,-3.2988,-3.304,-3.3137,-3.3149,-3.3076,-3.3074,-3.3227,-3.3243,-3.3259,-3.3394,-3.3312,-3.332,-3.3325,-3.3638,-3.3642,-3.3645,0,0,0,0,0,0,-3.2735,-3.276,-3.2981,-3.2884,-3.2912,-3.2977,-3.3035,-3.3044,-3.3083,-3.3154,-3.3165,-3.3104,-3.3225,-3.3247,-3.3353,-3.34,-3.3324,-3.3332,-3.3634,-3.3639,-3.3644,-3.3665,0,0,0,0,0,0,-3.2726,-3.2758,-3.28,-3.2885,-3.2917,-3.3071,-3.3038,-3.3049,-3.3098,-3.3097,-3.3183,-3.3194,-3.3225,-3.3339,-3.3362,-3.3411,-3.3339,-3.363,-3.3636,-3.3642,-3.366,-3.367,-3.3678,0,0,0,0,0,-3.2716,-3.2799,-3.2802,-3.2828,-3.2971,-3.3074,-3.3093,-3.3126,-3.3102,-3.3145,-3.3191,-3.3192,-3.3392,-3.335,-3.3376,-3.3428,-3.3627,-3.3635,-3.3642,-3.3656,-3.3668,-3.3677,0,0,0,0,0,0,-3.2718,-3.2811,-3.2815,-3.2929,-3.2994,-3.3076,-3.313,-3.3138,-3.321,-3.3206,-3.3245,-3.3264,-3.3369,-3.341,-3.3362,-3.354,-3.3507,-3.3519,-3.3509,-3.3521,-3.353,-3.3517,-3.3347,0,0,0,0,0,-3.2732,-3.2807,-3.2885,-3.2978,-3.301,-3.3065,-3.3111,-3.3132,-3.32,-3.3227,-3.3281,-3.3347,-3.3425,-3.3476,-3.3551,-3.3667,-3.3686,-3.3716,-3.3724,-3.3731,-3.3741,-3.3806,-3.382,-3.3668,-3.3668,-3.3668,0,0,-3.276,-3.2821,-3.2866,-3.298,-3.3032,-3.311,-3.3088,-3.317,-3.3228,-3.324,-3.3343,-3.3385,-3.3462,-3.3573,-3.3625,-3.361,-3.3788,-3.374,-3.3745,-3.3752,-3.3814,-3.3829,-3.3841,-3.3673,-3.3672,-3.3672,0,0,-3.2853,-3.2906,-3.299,-3.3043,-3.3123,-3.316,-3.318,-3.3262,-3.329,-3.3395,-3.3405,-3.3475,-3.3608,-3.3663,-3.3708,-3.3823,-3.3826,-3.3847,-3.3892,-3.3955,-3.3967,-3.3977,-3.4018,-3.4032,-3.3857,-3.3857,-3.3857,0,-3.2878,-3.2996,-3.3031,-3.3115,-3.3164,-3.3179,-3.3264,-3.3314,-3.3415,-3.3449,-3.3432,-3.36,-3.3653,-3.3777,-3.3805,-3.3842,-3.3866,-3.3836,-3.3962,-3.3973,-3.3984,-3.4023,-3.4038,-3.3859,-3.3859,-3.3858,-3.3858,0,-3.3023,-3.3105,-3.3162,-3.326,-3.3316,-3.34,-3.3448,-3.3502,-3.3518,-3.3556,-3.3663,-3.3727,-3.3816,-3.3848,-3.3865,-3.3975,-3.3964,-3.3954,-3.3921,-3.3999,-3.4037,-3.4052,-3.3861,-3.3861,-3.386,-3.386,0,0,-3.3119,-3.3237,-3.3257,-3.3302,-3.3393,-3.3456,-3.3541,-3.3629,-3.3673,-3.3743,-3.3815,-3.3928,-3.392,-3.3971,-3.3995,-3.405,-3.4137,-3.4033,-3.4036,-3.4049,-3.4263,-3.4268,-3.4285,-3.414,-3.4143,-3.4146,-3.4256,0,-3.3221,-3.3371,-3.3407,-3.3536,-3.3612,-3.3629,-3.3702,-3.3766,-3.3805,-3.3875,-3.3918,-3.3997,-3.3981,-3.4012,-3.4067,-3.4114,-3.418,-3.4107,-3.4207,-3.421,-3.4185,-3.4305,-3.4311,-3.4412,-3.4271,-3.4273,-3.4275,0,-3.3359,-3.3432,-3.3569,-3.365,-3.3684,-3.3749,-3.3833,-3.39,-3.3973,-3.3998,-3.4056,-3.4074,-3.4163,-3.4128,-3.4251,-3.4201,-3.4244,-3.4274,-3.4279,-3.4288,-3.4246,-3.4316,-3.4445,-3.4459,-3.4299,-3.4297,-3.4295,0,-3.3414,-3.3547,-3.3646,-3.3684,-3.3782,-3.3828,-3.3871,-3.3941,-3.3992,-3.4066,-3.4099,-3.4182,-3.4227,-3.4291,-3.4332,-3.4302,-3.4452,-3.4419,-3.4474,-3.4473,-3.4503,-3.4501,-3.4639,-3.4534,-3.4534,-3.4533,-3.4533,0,-3.3522,-3.3605,-3.3672,-3.3733,-3.3827,-3.3868,-3.3959,-3.4003,-3.4066,-3.4135,-3.4155,-3.422,-3.427,-3.4343,-3.4375,-3.4472,-3.4493,-3.4515,-3.4522,-3.4512,-3.4509,-3.454,-3.4533,-3.4537,-3.4536,-3.4536,-3.4535,0,-3.3599,-3.3647,-3.3756,-3.3841,-3.3864,-3.3929,-3.4002,-3.4062,-3.4102,-3.419,-3.4213,-3.4276,-3.4362,-3.4409,-3.4517,-3.4539,-3.4647,-3.4651,-3.4622,-3.4625,-3.4677,-3.4671,-3.4839,-3.4863,-3.4742,-3.4743,-3.4744,0,-3.3664,-3.3728,-3.382,-3.3868,-3.3912,-3.399,-3.4042,-3.4086,-3.4139,-3.4229,-3.4278,-3.4365,-3.4437,-3.4574,-3.463,-3.4713,-3.4718,-3.4772,-3.4731,-3.4719,-3.4718,-3.4713,-3.4719,-3.4778,-3.4779,-3.478,-3.4781,0,-3.3775,-3.3796,-3.387,-3.3954,-3.4016,-3.4084,-3.4151,-3.419,-3.4244,-3.4304,-3.4392,-3.4448,-3.4559,-3.4646,-3.4733,-3.4778,-3.4789,-3.4794,-3.481,-3.48,-3.478,-3.4791,-3.464,-3.4789,-3.4788,-3.4787,-3.4787,-3.4787,-3.3847,-3.3905,-3.3979,-3.4062,-3.4117,-3.418,-3.424,-3.4289,-3.4363,-3.4457,-3.4479,-3.4572,-3.4645,-3.4764,-3.4811,-3.4885,-3.4874,-3.4899,-3.4905,-3.491,-3.4912,-3.477,-3.4901,-3.4901,-3.4901,-3.4901,-3.4901,0,-3.3958,-3.4007,-3.4083,-3.4176,-3.4242,-3.4247,-3.4322,-3.4376,-3.4458,-3.4526,-3.4597,-3.4699,-3.4783,-3.4846,-3.4933,-3.498,-3.4987,-3.5001,-3.4997,-3.5007,-3.4916,-3.4893,-3.4994,-3.4994,-3.4994,-3.4994,-3.4994,-3.4994,-3.4023,-3.4122,-3.4152,-3.4279,-3.4327,-3.4419,-3.4461,-3.4519,-3.4573,-3.4686,-3.4757,-3.4798,-3.4863,-3.4955,-3.5033,-3.505,-3.508,-3.5093,-3.511,-3.5024,-3.5013,-3.5004,-3.4982,-3.51,-3.51,-3.5194,-3.5195,-3.5196]},{"header":{"parameterUnit":"m.s-1","parameterCategory":1,"la1":30.2991,"la2":30.254,"lo1":-89.0895,"lo2":-89.0444,"dy":0.0017,"dx":0.0017,"nx":28,"ny":28,"refTime":"2025-04-27T21:00:00:Z","depth":0,"parameterNumber":3,"parameterNumberName":"V-component_of_WINDS"},"data":[0,0,0,0,0,0,0,0,0,0,0,0,0,0,0,0,0,0,0,0,0,0,0,0,0,0,0,0,0,0,0,0,0,0,0,0,0,0,0,0,0,0,0,0,0,0,0,0,0,0,0,0,0,0,0,0,0,0,2.1807,2.1807,0,2.1855,2.1856,2.1856,2.1851,2.185,2.185,2.1849,2.1895,2.1897,2.1899,0,0,0,0,0,0,0,0,0,0,0,0,0,2.1707,2.1709,2.1807,2.1807,2.1808,2.1855,2.1856,2.1857,2.1851,2.185,2.1849,2.1849,2.1895,2.1897,2.1899,0,0,0,0,0,0,0,0,0,0,0,0,0,2.1752,2.1709,2.1807,2.1811,2.1812,2.1855,2.1856,2.1857,2.1851,2.185,2.1849,2.1848,2.1894,2.1897,2.1899,2.194,0,0,2.1908,2.191,0,0,0,0,0,0,0,0,2.1749,2.1756,2.181,2.1811,2.1812,2.1846,2.1838,2.1885,2.1852,2.1836,2.1849,2.1848,2.188,2.1884,2.1895,2.1942,2.1944,2.1909,2.191,2.1912,2.1912,0,0,0,0,0,0,0,2.1746,2.1754,2.1826,2.1811,2.1812,2.181,2.1815,2.1846,2.1864,2.1838,2.1837,2.1843,2.188,2.1892,2.1896,2.1945,2.1909,2.1911,2.1913,2.1914,2.2029,2.203,0,0,0,0,0,0,2.1743,2.1751,2.1824,2.1827,2.1777,2.1813,2.1818,2.1836,2.1863,2.1866,2.1844,2.1843,2.1888,2.1893,2.1898,2.1947,2.1912,2.1914,2.1916,2.2028,2.2029,2.2031,0,0,0,0,0,0,2.174,2.1749,2.1822,2.1789,2.1798,2.1816,2.1836,2.1838,2.185,2.1868,2.1871,2.1854,2.1887,2.1894,2.193,2.1949,2.1916,2.1918,2.2026,2.2028,2.203,2.2047,0,0,0,0,0,0,2.1738,2.1748,2.1765,2.179,2.18,2.1855,2.1837,2.184,2.1856,2.1854,2.1878,2.1881,2.1887,2.1926,2.1933,2.1952,2.1921,2.2024,2.2027,2.2029,2.2045,2.2049,2.2053,0,0,0,0,0,2.1734,2.1767,2.1765,2.1774,2.1821,2.1856,2.1862,2.1869,2.1857,2.1873,2.1885,2.188,2.1946,2.193,2.1938,2.1958,2.2023,2.2026,2.2029,2.2043,2.2048,2.2053,0,0,0,0,0,0,2.1742,2.177,2.1769,2.1811,2.1831,2.1855,2.1875,2.1874,2.1897,2.1895,2.1901,2.1907,2.1944,2.1955,2.1936,2.1999,2.1983,2.1988,2.1991,2.1996,2.2,2.1996,2.1923,0,0,0,0,0,2.1749,2.1776,2.1798,2.1833,2.1844,2.1858,2.1873,2.1877,2.1898,2.1906,2.192,2.194,2.1965,2.1981,2.2005,2.2047,2.2052,2.2065,2.2069,2.2072,2.2076,2.2099,2.2105,2.204,2.204,2.204,0,0,2.1762,2.1781,2.1798,2.1835,2.1851,2.1878,2.1865,2.1894,2.1914,2.191,2.1946,2.1957,2.1979,2.2019,2.2037,2.2029,2.2095,2.2076,2.2079,2.2081,2.2103,2.2109,2.2114,2.2042,2.2042,2.2041,0,0,2.1802,2.1819,2.185,2.1867,2.1892,2.1902,2.1909,2.1934,2.1941,2.1978,2.1976,2.1999,2.2042,2.2058,2.2072,2.2119,2.2115,2.2126,2.2148,2.217,2.2175,2.218,2.2196,2.2202,2.213,2.213,2.213,0,2.1815,2.1857,2.1865,2.1895,2.1912,2.1911,2.1943,2.1958,2.199,2.2001,2.1992,2.2047,2.2061,2.2105,2.2116,2.2128,2.2136,2.2123,2.2174,2.2179,2.2183,2.2199,2.2205,2.2131,2.2131,2.2131,2.2131,0,2.1872,2.1901,2.1923,2.1955,2.1974,2.2004,2.2017,2.2035,2.2038,2.2048,2.2085,2.2103,2.2131,2.2142,2.2144,2.2186,2.218,2.2173,2.2156,2.219,2.2205,2.2211,2.2133,2.2133,2.2132,2.2132,0,0,2.1916,2.1954,2.1962,2.1977,2.2005,2.2027,2.2058,2.2086,2.2102,2.2124,2.2149,2.2186,2.218,2.2196,2.22,2.2219,2.2255,2.221,2.221,2.2217,2.2302,2.2307,2.2314,2.2254,2.2255,2.2256,2.23,0,2.1958,2.2013,2.2022,2.207,2.2097,2.2097,2.2124,2.2143,2.2154,2.2178,2.2189,2.2215,2.2205,2.2215,2.2235,2.2247,2.2272,2.2244,2.2276,2.2277,2.227,2.2322,2.2327,2.2368,2.2306,2.2307,2.2308,0,2.2014,2.2039,2.209,2.2116,2.2127,2.2151,2.2178,2.2201,2.2224,2.223,2.2249,2.2251,2.2281,2.2264,2.2307,2.2287,2.2301,2.2309,2.2311,2.2314,2.2294,2.2326,2.2382,2.2388,2.2317,2.2316,2.2316,0,2.2041,2.2087,2.2124,2.2136,2.2167,2.2184,2.2197,2.2219,2.2236,2.226,2.2271,2.2297,2.2312,2.2332,2.2341,2.2328,2.2383,2.2367,2.2388,2.2388,2.2399,2.2398,2.2458,2.2409,2.2409,2.2409,2.2409,0,2.2086,2.2117,2.2136,2.2159,2.2193,2.2203,2.2237,2.225,2.227,2.2294,2.2296,2.2318,2.2329,2.2353,2.2361,2.2395,2.2401,2.2407,2.2408,2.2406,2.2405,2.2415,2.2412,2.2411,2.241,2.241,2.241,0,2.2121,2.2136,2.2176,2.2202,2.221,2.2234,2.2257,2.2278,2.2289,2.232,2.2328,2.2345,2.2373,2.2385,2.2419,2.2424,2.2463,2.2463,2.2456,2.2456,2.2477,2.2475,2.2545,2.2554,2.25,2.25,2.25,0,2.2149,2.2173,2.2203,2.222,2.2235,2.2262,2.228,2.2291,2.2309,2.2338,2.2356,2.2385,2.2408,2.2454,2.2469,2.2495,2.2495,2.2518,2.2499,2.2497,2.2495,2.2493,2.2496,2.2521,2.2521,2.2522,2.2522,0,2.2197,2.2203,2.2229,2.2258,2.228,2.2303,2.2325,2.2339,2.2353,2.2374,2.2404,2.2423,2.2459,2.2487,2.2515,2.2528,2.2527,2.2528,2.2535,2.2533,2.2528,2.253,2.2465,2.2526,2.2526,2.2525,2.2525,2.2525,2.2229,2.2251,2.2275,2.2305,2.2323,2.2344,2.2366,2.2381,2.2406,2.2437,2.2442,2.2474,2.2497,2.2534,2.2549,2.2573,2.2567,2.2577,2.2579,2.2581,2.2582,2.2524,2.2578,2.2578,2.2578,2.2578,2.2578,0,2.2276,2.2293,2.232,2.2352,2.2375,2.2374,2.2399,2.2418,2.2447,2.2468,2.2492,2.2527,2.2555,2.2573,2.2601,2.2617,2.2618,2.2624,2.2623,2.2626,2.2586,2.2578,2.2624,2.2624,2.2623,2.2623,2.2623,2.2623,2.2304,2.2341,2.235,2.2396,2.2412,2.2444,2.2458,2.2478,2.2495,2.2534,2.2558,2.257,2.259,2.262,2.2646,2.265,2.266,2.2667,2.2671,2.2633,2.2629,2.2624,2.2616,2.2669,2.2669,2.2709,2.2709,2.2709]}]]